• In Hungary
  • List of Countries
  • For 7 days
  • Water Temperature
  • Satellite Maps
  • Weather Map
  • News
  • Weather Widgets
  • user-avatar
    Login

    Hourly Weather Vitbino

    Today, 22 April, Sunday

    Time Temperature Precipitation Wind Pressure Humidity
    00:00 +4°C° 0.1 mm 4 mps 728 mmHg 80%
    01:00 +3°C° 0.1 mm 4 mps 729 mmHg 82%
    02:00 +3°C° 0 mm 3 mps 729 mmHg 85%
    03:00 +3°C° 0.2 mm 3 mps 729 mmHg 86%
    04:00 +2°C° 0.2 mm 3 mps 729 mmHg 88%
    05:00 +2°C° 0.2 mm 3 mps 729 mmHg 89%
    06:00 +2°C° 0.2 mm 3 mps 730 mmHg 85%
    07:00 +2°C° 0.2 mm 3 mps 730 mmHg 80%
    08:00 +3°C° 0.2 mm 3 mps 730 mmHg 76%
    09:00 +3°C° 0 mm 4 mps 731 mmHg 72%
    10:00 +4°C° 0 mm 4 mps 731 mmHg 68%
    11:00 +4°C° 0 mm 4 mps 732 mmHg 63%
    12:00 +4°C° 0 mm 4 mps 732 mmHg 62%
    13:00 +4°C° 0 mm 4 mps 732 mmHg 60%
    14:00 +4°C° 0 mm 4 mps 733 mmHg 59%
    15:00 +4°C° 0 mm 4 mps 733 mmHg 59%
    16:00 +4°C° 0 mm 4 mps 734 mmHg 59%
    17:00 +4°C° 0 mm 4 mps 734 mmHg 58%
    18:00 +3°C° 0 mm 3 mps 735 mmHg 63%
    19:00 +2°C° 0 mm 3 mps 735 mmHg 67%
    20:00 +2°C° 0 mm 2 mps 736 mmHg 71%
    21:00 +1°C° 0 mm 2 mps 736 mmHg 74%
    22:00 -1°C° 0 mm 2 mps 737 mmHg 78%
    23:00 0°C° 0 mm 1 mps 737 mmHg 81%

    Tomorrow, 23 April, Monday

    Time Temperature Precipitation Wind Pressure Humidity
    00:00 0°C° 0 mm 1 mps 738 mmHg 82%
    01:00 -1°C° 0 mm 1 mps 738 mmHg 83%
    02:00 -1°C° 0 mm 1 mps 739 mmHg 84%
    03:00 -1°C° 0 mm 1 mps 739 mmHg 83%
    04:00 -1°C° 0 mm 1 mps 739 mmHg 82%
    05:00 -1°C° 0 mm 1 mps 739 mmHg 82%
    06:00 0°C° 0 mm 1 mps 740 mmHg 71%
    07:00 +1°C° 0 mm 2 mps 740 mmHg 60%
    08:00 +3°C° 0 mm 2 mps 740 mmHg 49%
    09:00 +4°C° 0 mm 2 mps 740 mmHg 44%
    10:00 +5°C° 0 mm 2 mps 740 mmHg 40%
    11:00 +6°C° 0 mm 2 mps 740 mmHg 35%
    12:00 +7°C° 0 mm 2 mps 740 mmHg 34%
    13:00 +7°C° 0 mm 2 mps 739 mmHg 34%
    14:00 +8°C° 0 mm 2 mps 739 mmHg 33%
    15:00 +8°C° 0 mm 2 mps 739 mmHg 35%
    16:00 +7°C° 0 mm 2 mps 739 mmHg 37%
    17:00 +8°C° 0 mm 1 mps 738 mmHg 39%
    18:00 +6°C° 0 mm 1 mps 738 mmHg 46%
    19:00 +4°C° 0 mm 1 mps 738 mmHg 53%
    20:00 +2°C° 0 mm 1 mps 738 mmHg 60%
    21:00 +2°C° 0 mm 1 mps 738 mmHg 62%
    22:00 +1°C° 0 mm 1 mps 738 mmHg 64%
    23:00 +1°C° 0 mm 1 mps 738 mmHg 65%

    Day after tomorrow, 24 April, Tuesday

    Time Temperature Precipitation Wind Pressure Humidity
    00:00 +1°C° 0 mm 1 mps 738 mmHg 66%
    01:00 -2°C° 0 mm 2 mps 738 mmHg 68%
    02:00 -2°C° 0 mm 2 mps 737 mmHg 69%
    03:00 -2°C° 0 mm 2 mps 737 mmHg 68%
    04:00 -2°C° 0 mm 2 mps 737 mmHg 67%
    05:00 -1°C° 0 mm 2 mps 737 mmHg 67%
    06:00 +2°C° 0 mm 2 mps 736 mmHg 61%
    07:00 +3°C° 0 mm 3 mps 736 mmHg 56%
    08:00 +5°C° 0 mm 3 mps 736 mmHg 50%
    09:00 +7°C° 0.1 mm 3 mps 736 mmHg 52%
    10:00 +8°C° 0.1 mm 3 mps 735 mmHg 53%
    11:00 +8°C° 0.1 mm 4 mps 735 mmHg 54%
    12:00 +8°C° 0.1 mm 4 mps 735 mmHg 57%
    13:00 +8°C° 0.1 mm 4 mps 734 mmHg 60%
    14:00 +10°C° 0.1 mm 4 mps 734 mmHg 62%
    15:00 +9°C° 0.1 mm 3 mps 734 mmHg 68%
    16:00 +9°C° 0.1 mm 3 mps 733 mmHg 73%
    17:00 +8°C° 0.1 mm 2 mps 733 mmHg 78%
    18:00 +8°C° 0.1 mm 2 mps 733 mmHg 83%
    19:00 +7°C° 0.1 mm 2 mps 733 mmHg 87%
    20:00 +6°C° 0.1 mm 2 mps 733 mmHg 92%
    21:00 +6°C° 0.1 mm 2 mps 733 mmHg 93%
    22:00 +6°C° 0.1 mm 2 mps 733 mmHg 94%
    23:00 +6°C° 0.1 mm 2 mps 733 mmHg 96%

    25 April, Wednesday

    Time Temperature Precipitation Wind Pressure Humidity
    00:00 +5°C° 0 mm 2 mps 732 mmHg 96%
    01:00 +5°C° 0 mm 2 mps 732 mmHg 96%
    02:00 +4°C° 0 mm 2 mps 732 mmHg 97%
    03:00 +4°C° 0 mm 2 mps 732 mmHg 96%
    04:00 +4°C° 0 mm 2 mps 731 mmHg 96%
    05:00 +3°C° 0 mm 2 mps 731 mmHg 95%
    06:00 +3°C° 0.3 mm 3 mps 731 mmHg 93%
    07:00 +4°C° 0.3 mm 3 mps 731 mmHg 90%
    08:00 +5°C° 0.3 mm 4 mps 730 mmHg 88%
    09:00 +6°C° 0.7 mm 4 mps 730 mmHg 88%
    10:00 +6°C° 0.7 mm 4 mps 730 mmHg 88%
    11:00 +6°C° 0.7 mm 4 mps 729 mmHg 88%
    12:00 +7°C° 0.5 mm 4 mps 729 mmHg 85%
    13:00 +7°C° 0.5 mm 4 mps 729 mmHg 82%
    14:00 +8°C° 0.5 mm 4 mps 729 mmHg 79%
    15:00 +8°C° 0.3 mm 4 mps 729 mmHg 75%
    16:00 +10°C° 0.3 mm 4 mps 729 mmHg 72%
    17:00 +10°C° 0.3 mm 4 mps 729 mmHg 68%
    18:00 +8°C° 0.1 mm 3 mps 730 mmHg 74%
    19:00 +7°C° 0.1 mm 2 mps 730 mmHg 81%
    20:00 +6°C° 0.1 mm 2 mps 730 mmHg 87%
    21:00 +5°C° 0 mm 2 mps 730 mmHg 89%
    22:00 +5°C° 0 mm 2 mps 730 mmHg 90%
    23:00 +4°C° 0 mm 2 mps 730 mmHg 91%

    26 April, Thursday

    Time Temperature Precipitation Wind Pressure Humidity
    00:00 +4°C° 0 mm 2 mps 730 mmHg 92%
    01:00 +3°C° 0 mm 2 mps 730 mmHg 92%
    02:00 +3°C° 0 mm 2 mps 730 mmHg 93%
    03:00 +3°C° 0 mm 2 mps 729 mmHg 93%
    04:00 +4°C° 0 mm 1 mps 729 mmHg 92%
    05:00 +4°C° 0 mm 1 mps 729 mmHg 92%
    06:00 +4°C° 0 mm 2 mps 729 mmHg 87%
    07:00 +6°C° 0 mm 2 mps 729 mmHg 83%
    08:00 +7°C° 0 mm 2 mps 729 mmHg 78%
    09:00 +8°C° 0.1 mm 3 mps 730 mmHg 75%
    10:00 +8°C° 0.1 mm 3 mps 730 mmHg 71%
    11:00 +8°C° 0.1 mm 4 mps 730 mmHg 68%
    12:00 +10°C° 0.1 mm 4 mps 730 mmHg 61%
    13:00 +11°C° 0.1 mm 4 mps 731 mmHg 55%
    14:00 +12°C° 0.1 mm 4 mps 731 mmHg 48%
    15:00 +12°C° 0 mm 4 mps 731 mmHg 47%
    16:00 +12°C° 0 mm 3 mps 732 mmHg 46%
    17:00 +12°C° 0 mm 3 mps 732 mmHg 45%
    18:00 +10°C° 0 mm 3 mps 732 mmHg 54%
    19:00 +9°C° 0 mm 2 mps 733 mmHg 63%
    20:00 +7°C° 0 mm 2 mps 733 mmHg 72%
    21:00 +6°C° 0 mm 2 mps 734 mmHg 76%
    22:00 +6°C° 0 mm 2 mps 734 mmHg 80%
    23:00 +5°C° 0 mm 2 mps 734 mmHg 85%

    27 April, Friday

    Time Temperature Precipitation Wind Pressure Humidity
    00:00 +5°C° 0 mm 2 mps 734 mmHg 86%
    01:00 +5°C° 0 mm 2 mps 735 mmHg 87%
    02:00 +5°C° 0 mm 2 mps 735 mmHg 88%
    03:00 +5°C° 0 mm 2 mps 735 mmHg 90%
    04:00 +4°C° 0 mm 2 mps 735 mmHg 92%
    05:00 +4°C° 0 mm 2 mps 735 mmHg 94%
    06:00 +6°C° 0 mm 2 mps 735 mmHg 87%
    07:00 +7°C° 0 mm 2 mps 736 mmHg 81%
    08:00 +8°C° 0 mm 2 mps 736 mmHg 74%
    09:00 +8°C° 0.9 mm 2 mps 736 mmHg 77%
    10:00 +8°C° 0.9 mm 2 mps 736 mmHg 79%
    11:00 +8°C° 0.9 mm 2 mps 736 mmHg 82%
    12:00 +9°C° 0.2 mm 2 mps 736 mmHg 80%
    13:00 +10°C° 0.2 mm 2 mps 735 mmHg 79%
    14:00 +10°C° 0.2 mm 2 mps 735 mmHg 77%
    15:00 +10°C° 0.1 mm 2 mps 735 mmHg 77%
    16:00 +11°C° 0.1 mm 1 mps 735 mmHg 78%
    17:00 +11°C° 0.1 mm 1 mps 735 mmHg 78%
    18:00 +10°C° 0 mm 1 mps 735 mmHg 83%
    19:00 +9°C° 0 mm 1 mps 735 mmHg 88%
    20:00 +7°C° 0 mm 0 mps 735 mmHg 93%
    21:00 +8°C° 0 mm 1 mps 735 mmHg 93%
    22:00 +7°C° 0 mm 1 mps 735 mmHg 94%
    23:00 +7°C° 0 mm 1 mps 735 mmHg 95%
    Show more